Weather History for Flint, MI

Change the Weather History Date:

Monday, May 19, 2014

  Actual Average Record
Temperature  
Mean Temperature 61 °F 58 °F  
Max Temperature 73 °F 70 °F 89 °F (1996)
Min Temperature 48 °F 46 °F 29 °F (2002)
Degree Days  
Heating Degree Days 4 8  
Month to date heating degree days 194 202  
Since 1 July heating degree days 7446 6809  
Cooling Degree Days 0 1  
Month to date cooling degree days 17 11  
Year to date cooling degree days 17 15  
Growing Degree Days 10 (Base 50)    
Moisture  
Dew Point 38 °F    
Average Humidity 43    
Maximum Humidity 61    
Minimum Humidity 25    
Precipitation  
Precipitation 0.00 in 0.10 in 1.19 in (1949)
Month to date precipitation 4.99 1.87  
Year to date precipitation 12.69 9.78  
Snow  
Snow 0.00 in 0.00 in T in ()
Month to date snowfall 0.0 0.0  
Since 1 July snowfall 83.9 47.4  
Snow Depth 0.00 in    
Sea Level Pressure  
Sea Level Pressure 30.22 in    
Wind  
Wind Speed 7 mph (SSW)    
Max Wind Speed 15 mph    
Max Gust Speed 20 mph    
Visibility 10 miles    
Events      
T = Trace of Precipitation, MM = Missing Value Source: NWS Daily Summary

Daily Weather History Graph

Daily Weather History Graph

Search for Another Location

Airport:

Trip Planner

Search our weather history database for the weather conditions in past years. The results will help you decide how hot, cold, wet, or windy it might be!

Date:

Astronomy

May. 19, 2014 Rise Set
Actual Time 6:07 AM EDT 8:55 PM EDT
Civil Twilight 5:34 AM EDT 9:28 PM EDT
Nautical Twilight 4:53 AM EDT 10:10 PM EDT
Astronomical Twilight 4:05 AM EDT 10:59 PM EDT
Moon 12:40 AM EDT (5/19) 11:06 AM EDT (5/19)
Length of Visible Light 15h 53m
Length of Day
14h 47m
Waning Gibbous, 71% of the Moon is Illuminated
May 19
Waning Gibbous
May 21
Last Quarter
May 28
New
Jun 5
First Quarter
Jun 13
Full

Hourly Weather History & Observations

Time (EDT) Temp. Dew Point Humidity Pressure Visibility Wind Dir Wind Speed Gust Speed Precip Events Conditions
12:53 AM 53.1 °F 36.0 °F 52% 30.22 in 10.0 mi SW 5.8 mph - N/A   Clear
1:53 AM 51.1 °F 36.0 °F 56% 30.23 in 10.0 mi SW 5.8 mph - N/A   Clear
2:53 AM 51.1 °F 36.0 °F 56% 30.24 in 10.0 mi SSW 4.6 mph - N/A   Clear
3:53 AM 50.0 °F 36.0 °F 59% 30.25 in 10.0 mi SSW 5.8 mph - N/A   Clear
4:53 AM 48.9 °F 36.0 °F 61% 30.27 in 10.0 mi SW 5.8 mph - N/A   Clear
5:53 AM 48.9 °F 36.0 °F 61% 30.28 in 10.0 mi SW 5.8 mph - N/A   Clear
6:53 AM 50.0 °F 37.0 °F 61% 30.29 in 10.0 mi SW 6.9 mph - N/A   Clear
7:53 AM 54.0 °F 37.9 °F 55% 30.30 in 10.0 mi WSW 6.9 mph - N/A   Clear
9:53 AM 63.0 °F 39.9 °F 43% 30.29 in 10.0 mi SW 8.1 mph - N/A   Clear
10:53 AM 66.9 °F 41.0 °F 39% 30.27 in 10.0 mi West 11.5 mph - N/A   Clear
11:53 AM 68.0 °F 41.0 °F 37% 30.27 in 10.0 mi WSW 8.1 mph - N/A   Clear
12:53 PM 69.1 °F 37.9 °F 32% 30.25 in 10.0 mi Variable 4.6 mph - N/A   Clear
1:53 PM 69.8 °F 39.2 °F 33% 30.23 in 10.0 mi SW 9.2 mph - N/A   Clear
2:53 PM 72.0 °F 37.9 °F 29% 30.21 in 10.0 mi SSW 10.4 mph - N/A   Clear
3:53 PM 72.0 °F 36.0 °F 27% 30.19 in 10.0 mi SW 6.9 mph - N/A   Clear
4:53 PM 72.0 °F 35.1 °F 26% 30.19 in 10.0 mi SSW 11.5 mph 17.3 mph N/A   Clear
5:53 PM 71.1 °F 34.0 °F 26% 30.17 in 10.0 mi South 9.2 mph - N/A   Clear
6:53 PM 68.0 °F 39.0 °F 35% 30.15 in 10.0 mi South 9.2 mph - N/A   Clear
7:53 PM 66.9 °F 37.9 °F 34% 30.13 in 10.0 mi South 5.8 mph - N/A   Clear
8:53 PM 60.1 °F 43.0 °F 53% 30.13 in 10.0 mi SSE 6.9 mph - N/A   Clear
9:53 PM 61.0 °F 42.1 °F 50% 30.15 in 10.0 mi SSE 4.6 mph - N/A   Clear
10:53 PM 61.0 °F 41.0 °F 48% 30.16 in 10.0 mi SSE 4.6 mph - N/A   Clear
11:53 PM 61.0 °F 39.9 °F 46% 30.17 in 10.0 mi South 5.8 mph - N/A   Clear